Regional Weather Roundup
Issued by NWS Sioux Falls, SD

Home | Current Version | Previous Version | Text Only | Print | Product List | Glossary On
Versions: 1 2 3 4 5 6 7 8 9 10 11 12 13 14 15 16 17 18 19 20 21 22 23 24 25 26 27 28 29 30 31 32 33 34 35 36 37 38 39 40 41 42 43 44 45 46 47 48 49 50
000
ASUS43 KFSD 060710
RWRFSD

WEATHER ROUNDUP FOR SE SOUTH DAKOTA/SW MINNESOTA/NW IOWA
NATIONAL WEATHER SERVICE SIOUX FALLS SD
200 AM CDT FRI MAY 06 2016

NOTE: "FAIR" INDICATES FEW OR NO CLOUDS BELOW 12,000 FEET WITH NO
SIGNIFICANT WEATHER AND OR OBSTRUCTIONS TO VISIBILITY.


SDZ038>040-050-052>070-060800-
SOUTHEAST SOUTH DAKOTA

CITY           SKY/WX    TMP DP  RH WIND       PRES   REMARKS
BROOKINGS      CLEAR     58  44  60 S10       29.91S
CHAMBERLAIN    CLOUDY    67  53  59 S14       29.86R
HURON          CLEAR     61  47  59 S12       29.85F
MADISON        FAIR      59  41  51 S9        29.92S
MITCHELL       CLEAR     61  49  64 S12       29.88F
SIOUX FALLS    CLEAR     61  43  51 SW9       29.92F
WINNER         LGT RAIN  70  47  43 S20G32    29.86S
YANKTON        CLEAR     64  41  42 S9        29.92F
$$

MNZ071-072-080-081-089-090-097-098-060800-
SOUTHWEST MINNESOTA

CITY           SKY/WX    TMP DP  RH WIND       PRES   REMARKS
FAIRMONT       CLEAR     57  37  47 SW7       29.93F
JACKSON        CLEAR     59  37  44 SW10      29.95F
LUVERNE        CLEAR     50  41  71 S5        29.95S
MARSHALL       NOT AVBL
MONTEVIDEO     CLEAR     57  45  62 SW8       29.90F
PIPESTONE      CLEAR     55  43  62 SW9       29.93F
REDWOOD FALLS  CLEAR     60  41  49 SW12      29.90S
TRACY          CLEAR     62  43  51 SW16      29.91S
WINDOM         CLEAR     59  43  55 SW3       29.94S
WORTHINGTON    CLEAR     60  42  51 SW17      29.95S
$$

IAZ001>003-012>014-020>022-031-032-NEZ013-014-SDZ071-060800-
NORTHWEST IOWA

CITY           SKY/WX    TMP DP  RH WIND       PRES   REMARKS
CHEROKEE       CLEAR     50  44  80 CALM      29.97S
DENISON        CLEAR     57  43  58 CALM      29.98S
ESTHERVILLE    CLEAR     58  41  53 SW12      29.94F
LE MARS        CLEAR     54  45  71 CALM      29.97S
ORANGE CITY    CLEAR     55  45  67 S7        29.96S
SHELDON        CLEAR     59  43  55 SW10      29.95R
SIOUX CITY     PTCLDY    55  44  66 SE8       29.96F
SPENCER        CLEAR     54  41  61 SW7       29.96S
STORM LAKE     PTCLDY    57  41  54 SW10      29.99S
$$

ABBREVIATIONS USED IN REMARKS
   TC - TEMPERATURE IN CELSIUS
  WCI - WIND CHILL INDEX
   HX - HEAT INDEX
  VSB - VISIBILITY





USA.gov is the U.S. government's official web portal to all federal, state and local government web resources and services.